,,,PA_Meas_PMT16A,,PR_Meas_QMR101_102,,RH_Meas_QMH101,,SR_Meas_QMS101,,TA_Meas_QMH101,,GenWind,,GenWind,
date,time,status,PA,status,PR,status,RH,status,SR,status,TA,status,DirAvg,status,SpdAvg,
2008-10-13, 00:00:04,VALID,1004.56,VALID,0,VALID,92.6451,VALID,0,VALID,24.3459,VALID,22,VALID,0.637891,
2008-10-13, 00:01:04,VALID,1004.57,VALID,0,VALID,92.5078,VALID,0.100563,VALID,24.3849,VALID,20,VALID,0.390234,
2008-10-13, 00:02:04,VALID,1004.55,VALID,0,VALID,92.3247,VALID,0,VALID,24.3636,VALID,20,VALID,0.388672,
2008-10-13, 00:03:04,VALID,1004.56,VALID,0,VALID,92.3095,VALID,0.100563,VALID,24.3459,VALID,20,VALID,0,
2008-10-13, 00:04:04,VALID,1004.53,VALID,0,VALID,92.2866,VALID,0,VALID,24.307,VALID,20,VALID,0,
2008-10-13, 00:05:04,VALID,1004.49,VALID,0,VALID,92.3857,VALID,0,VALID,24.2875,VALID,30,VALID,0.353906,
2008-10-13, 00:06:04,VALID,1004.46,VALID,0,VALID,92.5383,VALID,0,VALID,24.307,VALID,82,VALID,0.253125,
2008-10-13, 00:07:04,VALID,1004.43,VALID,0,VALID,92.5688,VALID,0,VALID,24.2857,VALID,82,VALID,0.355859,
2008-10-13, 00:08:04,VALID,1004.45,VALID,0,VALID,92.7214,VALID,0.100563,VALID,24.3265,VALID,82,VALID,0.231641,
2008-10-13, 00:09:04,VALID,1004.45,VALID,0,VALID,92.6909,VALID,0,VALID,24.3265,VALID,82,VALID,0.373437,
2008-10-13, 00:10:04,VALID,1004.45,VALID,0,VALID,92.668,VALID,0,VALID,24.3265,VALID,82,VALID,0,
2008-10-13, 00:11:04,VALID,1004.44,VALID,0,VALID,92.6756,VALID,0,VALID,24.3283,VALID,82,VALID,0,
2008-10-13, 00:12:04,VALID,1004.43,VALID,0,VALID,92.6528,VALID,0,VALID,24.3265,VALID,77,VALID,0,
2008-10-13, 00:13:04,VALID,1004.41,VALID,0,VALID,92.6299,VALID,0,VALID,24.2681,VALID,77,VALID,0,
2008-10-13, 00:14:04,VALID,1004.39,VALID,0,VALID,92.6375,VALID,0,VALID,24.2486,VALID,77,VALID,0.314844,
2008-10-13, 00:15:04,VALID,1004.4,VALID,0,VALID,92.6299,VALID,0,VALID,24.2097,VALID,77,VALID,0.390234,
2008-10-13, 00:16:04,VALID,1004.37,VALID,0,VALID,92.6451,VALID,0,VALID,24.192,VALID,77,VALID,0.0496094,
2008-10-13, 00:17:04,VALID,1004.32,VALID,0,VALID,92.8282,VALID,0,VALID,24.1513,VALID,44,VALID,0.288672,
2008-10-13, 00:18:04,VALID,1004.34,VALID,0,VALID,92.9884,VALID,0,VALID,24.1513,VALID,31,VALID,0.428516,
2008-10-13, 00:19:04,VALID,1004.29,VALID,0,VALID,93.0342,VALID,0,VALID,24.1513,VALID,31,VALID,0.139062,
2008-10-13, 00:20:04,VALID,1004.33,VALID,0,VALID,93.1791,VALID,0,VALID,24.192,VALID,61,VALID,0.505859,
2008-10-13, 00:21:04,VALID,1004.28,VALID,0,VALID,93.3622,VALID,0,VALID,24.231,VALID,46,VALID,0.519922,
2008-10-13, 00:22:04,VALID,1004.29,VALID,0,VALID,93.2631,VALID,0,VALID,24.2486,VALID,38,VALID,0.322266,
2008-10-13, 00:23:04,VALID,1004.27,VALID,0,VALID,93.0037,VALID,0,VALID,24.2097,VALID,38,VALID,0.381641,
2008-10-13, 00:24:04,VALID,1004.3,VALID,0,VALID,93.0266,VALID,0,VALID,24.1902,VALID,38,VALID,0.265234,
2008-10-13, 00:25:04,VALID,1004.28,VALID,0,VALID,93.0266,VALID,0,VALID,24.1902,VALID,38,VALID,0.154297,
2008-10-13, 00:26:04,VALID,1004.25,VALID,0,VALID,93.0876,VALID,0,VALID,24.1707,VALID,38,VALID,0.202344,
2008-10-13, 00:27:04,VALID,1004.24,VALID,0,VALID,93.1029,VALID,0,VALID,24.1707,VALID,38,VALID,0.241016,
2008-10-13, 00:28:04,VALID,1004.22,VALID,0,VALID,93.2097,VALID,0,VALID,24.1513,VALID,38,VALID,0.293359,
2008-10-13, 00:29:04,VALID,1004.21,VALID,0,VALID,93.2325,VALID,0,VALID,24.1513,VALID,38,VALID,0.046875,
2008-10-13, 00:30:04,VALID,1004.19,VALID,0,VALID,93.2707,VALID,0,VALID,24.1531,VALID,38,VALID,0.242188,
2008-10-13, 00:31:04,VALID,1004.19,VALID,0,VALID,93.3928,VALID,0.100563,VALID,24.1318,VALID,38,VALID,0.369141,
2008-10-13, 00:32:04,VALID,1004.17,VALID,0,VALID,93.5453,VALID,0,VALID,24.1707,VALID,38,VALID,0.242578,
2008-10-13, 00:33:04,VALID,1004.17,VALID,0,VALID,93.5224,VALID,0,VALID,24.1902,VALID,38,VALID,0.546875,
2008-10-13, 00:34:04,VALID,1004.16,VALID,0,VALID,93.5377,VALID,0,VALID,24.1902,VALID,38,VALID,0.300391,
2008-10-13, 00:35:04,VALID,1004.15,VALID,0,VALID,93.5835,VALID,0,VALID,24.2097,VALID,60,VALID,0.401563,
2008-10-13, 00:36:04,VALID,1004.16,VALID,0,VALID,93.5682,VALID,0,VALID,24.2097,VALID,60,VALID,0.249609,
2008-10-13, 00:37:04,VALID,1004.16,VALID,0,VALID,93.5606,VALID,0,VALID,24.2291,VALID,60,VALID,0.289453,
2008-10-13, 00:38:04,VALID,1004.15,VALID,0,VALID,93.5301,VALID,0.100563,VALID,24.2291,VALID,60,VALID,0.0746094,
2008-10-13, 00:39:04,VALID,1004.15,VALID,0,VALID,93.5148,VALID,0,VALID,24.2699,VALID,60,VALID,0,
2008-10-13, 00:40:04,VALID,1004.1,VALID,0,VALID,93.5072,VALID,0,VALID,24.2699,VALID,60,VALID,0,
2008-10-13, 00:41:04,VALID,1004.14,VALID,0,VALID,93.5453,VALID,0,VALID,24.2681,VALID,62,VALID,0.221875,
2008-10-13, 00:42:04,VALID,1004.13,VALID,0,VALID,93.5835,VALID,0,VALID,24.2681,VALID,62,VALID,0.485156,
2008-10-13, 00:43:04,VALID,1004.15,VALID,0,VALID,93.5758,VALID,0,VALID,24.307,VALID,62,VALID,0.244922,
2008-10-13, 00:44:04,VALID,1004.15,VALID,0,VALID,93.5606,VALID,0,VALID,24.3459,VALID,62,VALID,0.301953,
2008-10-13, 00:45:04,VALID,1004.15,VALID,0,VALID,93.4309,VALID,0,VALID,24.3673,VALID,59,VALID,0.273047,
2008-10-13, 00:46:04,VALID,1004.11,VALID,0,VALID,93.2249,VALID,0,VALID,24.3459,VALID,51,VALID,0.485156,
2008-10-13, 00:47:04,VALID,1004.11,VALID,0,VALID,93.1257,VALID,0,VALID,24.307,VALID,51,VALID,0.417969,
2008-10-13, 00:48:04,VALID,1004.1,VALID,0,VALID,93.0952,VALID,0,VALID,24.2875,VALID,51,VALID,0.374609,
2008-10-13, 00:49:04,VALID,1004.08,VALID,0,VALID,93.0266,VALID,0,VALID,24.2681,VALID,51,VALID,0.289063,
2008-10-13, 00:50:04,VALID,1004.09,VALID,0,VALID,93.0342,VALID,0,VALID,24.2486,VALID,51,VALID,0.268359,
2008-10-13, 00:51:04,VALID,1004.07,VALID,0,VALID,93.0342,VALID,0,VALID,24.2486,VALID,51,VALID,0.345703,
2008-10-13, 00:52:04,VALID,1004.07,VALID,0,VALID,93.0571,VALID,0,VALID,24.2486,VALID,51,VALID,0.191016,
2008-10-13, 00:53:04,VALID,1004.1,VALID,0,VALID,92.8816,VALID,0,VALID,24.2078,VALID,51,VALID,0.332031,
2008-10-13, 00:54:04,VALID,1004.08,VALID,0,VALID,92.8358,VALID,0,VALID,24.1707,VALID,51,VALID,0.210938,
2008-10-13, 00:55:04,VALID,1004.09,VALID,0,VALID,92.9655,VALID,0,VALID,24.1726,VALID,51,VALID,0.176172,
2008-10-13, 00:56:04,VALID,1004.05,VALID,0,VALID,93.1257,VALID,0,VALID,24.1531,VALID,51,VALID,0,
2008-10-13, 00:57:04,VALID,1004.03,VALID,0,VALID,93.2402,VALID,0,VALID,24.1513,VALID,51,VALID,0.00078125,
2008-10-13, 00:58:04,VALID,1003.98,VALID,0,VALID,93.3928,VALID,0,VALID,24.2115,VALID,53,VALID,0.537891,
2008-10-13, 00:59:04,VALID,1003.99,VALID,0,VALID,93.3775,VALID,0,VALID,24.2504,VALID,53,VALID,0.249219,
2008-10-13, 01:00:04,VALID,1004.01,VALID,0,VALID,93.1563,VALID,0,VALID,24.2504,VALID,53,VALID,0.529297,
2008-10-13, 01:01:04,VALID,1003.97,VALID,0,VALID,93.0037,VALID,0,VALID,24.231,VALID,53,VALID,0.423438,
2008-10-13, 01:02:04,VALID,1003.96,VALID,0,VALID,92.9503,VALID,0,VALID,24.2115,VALID,53,VALID,0.44375,
2008-10-13, 01:03:04,VALID,1003.99,VALID,0,VALID,92.935,VALID,0,VALID,24.1726,VALID,53,VALID,0.488281,
2008-10-13, 01:04:04,VALID,1003.94,VALID,0,VALID,92.9884,VALID,0,VALID,24.1336,VALID,53,VALID,0.369922,
2008-10-13, 01:05:04,VALID,1003.92,VALID,0,VALID,92.935,VALID,0,VALID,24.0947,VALID,53,VALID,0.419141,
2008-10-13, 01:06:04,VALID,1003.94,VALID,0,VALID,92.935,VALID,0,VALID,24.0363,VALID,53,VALID,0.354688,
2008-10-13, 01:07:04,VALID,1003.93,VALID,0,VALID,93.0189,VALID,0,VALID,23.9779,VALID,53,VALID,0.278906,
2008-10-13, 01:08:04,VALID,1003.92,VALID,0,VALID,93.1029,VALID,0,VALID,23.9584,VALID,54,VALID,0.271875,
2008-10-13, 01:09:04,VALID,1003.89,VALID,0,VALID,93.2478,VALID,0,VALID,23.9389,VALID,54,VALID,0.348047,
2008-10-13, 01:10:04,VALID,1003.93,VALID,0,VALID,93.4462,VALID,0,VALID,23.9389,VALID,54,VALID,0.482812,
2008-10-13, 01:11:04,VALID,1003.92,VALID,0,VALID,93.347,VALID,0,VALID,23.9195,VALID,46,VALID,0.555078,
2008-10-13, 01:12:04,VALID,1003.92,VALID,0,VALID,93.3775,VALID,0,VALID,23.9,VALID,44,VALID,0.695313,
2008-10-13, 01:13:04,VALID,1003.93,VALID,0,VALID,93.347,VALID,0,VALID,23.8611,VALID,38,VALID,0.605859,
2008-10-13, 01:14:04,VALID,1003.91,VALID,0,VALID,93.3851,VALID,0,VALID,23.8221,VALID,34,VALID,0.483203,
2008-10-13, 01:15:04,VALID,1003.9,VALID,0,VALID,93.3851,VALID,0,VALID,23.7832,VALID,34,VALID,0.379297,
2008-10-13, 01:16:04,VALID,1003.92,VALID,0,VALID,93.4767,VALID,0,VALID,23.7637,VALID,34,VALID,0.384766,
2008-10-13, 01:17:04,VALID,1003.89,VALID,0,VALID,93.5148,VALID,0,VALID,23.7035,VALID,34,VALID,0.364062,
2008-10-13, 01:18:04,VALID,1003.89,VALID,0,VALID,93.5758,VALID,0,VALID,23.7053,VALID,34,VALID,0.333984,
2008-10-13, 01:19:04,VALID,1003.89,VALID,0,VALID,93.9954,VALID,0,VALID,23.7248,VALID,21,VALID,0.299609,
2008-10-13, 01:20:04,VALID,1003.89,VALID,0,VALID,93.942,VALID,0,VALID,23.7637,VALID,21,VALID,0.321094,
2008-10-13, 01:21:04,VALID,1003.88,VALID,0,VALID,93.8429,VALID,0,VALID,23.7443,VALID,21,VALID,0.319922,
2008-10-13, 01:22:04,VALID,1003.87,VALID,0,VALID,93.7895,VALID,0,VALID,23.7248,VALID,20,VALID,0.362891,
2008-10-13, 01:23:04,VALID,1003.85,VALID,0,VALID,93.8047,VALID,0,VALID,23.7053,VALID,20,VALID,0.477734,
2008-10-13, 01:24:04,VALID,1003.84,VALID,0,VALID,94.0107,VALID,0,VALID,23.7425,VALID,18,VALID,0.372266,
2008-10-13, 01:25:04,VALID,1003.81,VALID,0,VALID,94.0717,VALID,0,VALID,23.7425,VALID,18,VALID,0.29375,
2008-10-13, 01:26:04,VALID,1003.83,VALID,0,VALID,93.9954,VALID,0,VALID,23.7425,VALID,18,VALID,0.349219,
2008-10-13, 01:27:04,VALID,1003.81,VALID,0,VALID,94.0794,VALID,0,VALID,23.7425,VALID,18,VALID,0.447656,
2008-10-13, 01:28:04,VALID,1003.81,VALID,0,VALID,94.1175,VALID,0,VALID,23.8009,VALID,18,VALID,0.426172,
2008-10-13, 01:29:04,VALID,1003.77,VALID,0,VALID,94.1022,VALID,0,VALID,23.8203,VALID,19,VALID,0.278125,
2008-10-13, 01:30:04,VALID,1003.77,VALID,0,VALID,94.1938,VALID,0,VALID,23.8398,VALID,19,VALID,0.205859,
2008-10-13, 01:31:04,VALID,1003.74,VALID,0,VALID,94.2243,VALID,0.100563,VALID,23.8982,VALID,20,VALID,0.432813,
2008-10-13, 01:32:04,VALID,1003.78,VALID,0,VALID,94.3082,VALID,0,VALID,23.9159,VALID,20,VALID,0.254687,
2008-10-13, 01:33:04,VALID,1003.74,VALID,0,VALID,94.2624,VALID,0,VALID,23.9797,VALID,20,VALID,0.0617188,
2008-10-13, 01:34:04,VALID,1003.73,VALID,0,VALID,94.1785,VALID,0,VALID,23.9973,VALID,20,VALID,0,
2008-10-13, 01:35:04,VALID,1003.71,VALID,0,VALID,94.2701,VALID,0,VALID,24.0363,VALID,37,VALID,0.214062,
2008-10-13, 01:36:04,VALID,1003.71,VALID,0,VALID,94.1404,VALID,0,VALID,24.0965,VALID,37,VALID,0.0730469,
2008-10-13, 01:37:04,VALID,1003.68,VALID,0,VALID,94.1175,VALID,0,VALID,24.1142,VALID,44,VALID,0.248437,
2008-10-13, 01:38:04,VALID,1003.67,VALID,0,VALID,93.9878,VALID,0,VALID,24.1318,VALID,44,VALID,0.432422,
2008-10-13, 01:39:04,VALID,1003.67,VALID,0,VALID,93.7666,VALID,0,VALID,24.1513,VALID,44,VALID,0.244531,
2008-10-13, 01:40:04,VALID,1003.66,VALID,0,VALID,93.6216,VALID,0,VALID,24.1513,VALID,36,VALID,0.667578,
2008-10-13, 01:41:05,VALID,1003.67,VALID,0,VALID,93.4233,VALID,0.100563,VALID,24.1318,VALID,36,VALID,0.535547,
2008-10-13, 01:42:05,VALID,1003.65,VALID,0,VALID,93.3851,VALID,0,VALID,24.1123,VALID,36,VALID,0.464063,
2008-10-13, 01:43:05,VALID,1003.6,VALID,0,VALID,93.3851,VALID,0,VALID,24.1123,VALID,36,VALID,0.323438,
2008-10-13, 01:44:05,VALID,1003.57,VALID,0,VALID,93.3699,VALID,0,VALID,24.0929,VALID,36,VALID,0.458203,
2008-10-13, 01:45:05,VALID,1003.57,VALID,0,VALID,93.4156,VALID,0,VALID,24.0734,VALID,36,VALID,0.465625,
2008-10-13, 01:46:05,VALID,1003.56,VALID,0,VALID,93.4843,VALID,0.100563,VALID,24.0521,VALID,36,VALID,0.402734,
2008-10-13, 01:47:05,VALID,1003.55,VALID,0,VALID,93.5835,VALID,0,VALID,24.0734,VALID,36,VALID,0.282422,
2008-10-13, 01:48:05,VALID,1003.53,VALID,0,VALID,93.7361,VALID,0,VALID,24.0929,VALID,36,VALID,0.551172,
2008-10-13, 01:49:05,VALID,1003.53,VALID,0,VALID,93.6598,VALID,0.100563,VALID,24.091,VALID,36,VALID,0.394141,
2008-10-13, 01:50:05,VALID,1003.51,VALID,0,VALID,93.6598,VALID,0.100563,VALID,24.0929,VALID,36,VALID,0.392969,
2008-10-13, 01:51:05,VALID,1003.48,VALID,0,VALID,93.614,VALID,0,VALID,24.0734,VALID,36,VALID,0.447656,
2008-10-13, 01:52:05,VALID,1003.46,VALID,0,VALID,93.7589,VALID,0,VALID,24.1142,VALID,35,VALID,0.335547,
2008-10-13, 01:53:05,VALID,1003.45,VALID,0,VALID,93.9115,VALID,0,VALID,24.1318,VALID,25,VALID,0.447656,
2008-10-13, 01:54:05,VALID,1003.43,VALID,0,VALID,93.8429,VALID,0,VALID,24.1513,VALID,26,VALID,0.0613281,
2008-10-13, 01:55:05,VALID,1003.4,VALID,0,VALID,93.8352,VALID,0,VALID,24.1513,VALID,26,VALID,0.430469,
2008-10-13, 01:56:05,VALID,1003.4,VALID,0,VALID,93.7742,VALID,0,VALID,24.1494,VALID,26,VALID,0.00664063,
2008-10-13, 01:57:05,VALID,1003.37,VALID,0,VALID,93.7818,VALID,0.100563,VALID,24.1513,VALID,26,VALID,0.246484,
2008-10-13, 01:58:05,VALID,1003.35,VALID,0,VALID,93.8352,VALID,0,VALID,24.1707,VALID,26,VALID,0.45625,
2008-10-13, 01:59:05,VALID,1003.36,VALID,0,VALID,93.8352,VALID,0,VALID,24.2097,VALID,26,VALID,0.322656,
2008-10-13, 02:00:05,VALID,1003.34,VALID,0,VALID,93.8047,VALID,0,VALID,24.231,VALID,26,VALID,0.230859,
2008-10-13, 02:01:05,VALID,1003.31,VALID,0,VALID,93.8047,VALID,0,VALID,24.2291,VALID,26,VALID,0.217187,
2008-10-13, 02:02:05,VALID,1003.29,VALID,0,VALID,93.8123,VALID,0,VALID,24.2291,VALID,26,VALID,0.239063,
2008-10-13, 02:03:05,VALID,1003.28,VALID,0,VALID,93.8047,VALID,0.100563,VALID,24.2291,VALID,26,VALID,0,
2008-10-13, 02:04:05,VALID,1003.25,VALID,0,VALID,93.8047,VALID,0,VALID,24.2486,VALID,67,VALID,0.317187,
2008-10-13, 02:05:05,VALID,1003.24,VALID,0,VALID,93.8352,VALID,0,VALID,24.2681,VALID,66,VALID,0.467187,
2008-10-13, 02:06:05,VALID,1003.24,VALID,0,VALID,93.8276,VALID,0,VALID,24.2875,VALID,66,VALID,0.314063,
2008-10-13, 02:07:05,VALID,1003.23,VALID,0,VALID,93.7742,VALID,0,VALID,24.2875,VALID,66,VALID,0.182031,
2008-10-13, 02:08:05,VALID,1003.21,VALID,0,VALID,93.7437,VALID,0,VALID,24.307,VALID,66,VALID,0.282031,
2008-10-13, 02:09:05,VALID,1003.18,VALID,0,VALID,93.8047,VALID,0,VALID,24.3478,VALID,44,VALID,0.349219,
2008-10-13, 02:10:05,VALID,1003.19,VALID,0,VALID,93.7437,VALID,0,VALID,24.3265,VALID,44,VALID,0.171484,
2008-10-13, 02:11:05,VALID,1003.19,VALID,0,VALID,93.6979,VALID,0,VALID,24.3265,VALID,44,VALID,0,
2008-10-13, 02:12:05,VALID,1003.21,VALID,0,VALID,93.6598,VALID,0,VALID,24.3265,VALID,44,VALID,0,
2008-10-13, 02:13:05,VALID,1003.19,VALID,0,VALID,93.6598,VALID,0,VALID,24.307,VALID,44,VALID,0.283594,
2008-10-13, 02:14:05,VALID,1003.18,VALID,0,VALID,93.7284,VALID,0,VALID,24.307,VALID,44,VALID,0.315234,
2008-10-13, 02:15:05,VALID,1003.19,VALID,0,VALID,93.7818,VALID,0,VALID,24.3265,VALID,44,VALID,0.558203,
2008-10-13, 02:16:05,VALID,1003.19,VALID,0,VALID,93.7818,VALID,0,VALID,24.3459,VALID,44,VALID,0.347266,
2008-10-13, 02:17:05,VALID,1003.17,VALID,0,VALID,93.8429,VALID,0,VALID,24.3673,VALID,44,VALID,0.387109,
2008-10-13, 02:18:05,VALID,1003.14,VALID,0,VALID,93.6674,VALID,0,VALID,24.3265,VALID,44,VALID,0.361328,
2008-10-13, 02:19:05,VALID,1003.15,VALID,0,VALID,93.6369,VALID,0,VALID,24.2857,VALID,44,VALID,0.252734,
2008-10-13, 02:20:05,VALID,1003.15,VALID,0,VALID,93.7284,VALID,0,VALID,24.2875,VALID,44,VALID,0.179688,
2008-10-13, 02:21:05,VALID,1003.13,VALID,0,VALID,93.6598,VALID,0,VALID,24.2681,VALID,44,VALID,0.0472656,
2008-10-13, 02:22:05,VALID,1003.15,VALID,0,VALID,93.6445,VALID,0,VALID,24.2681,VALID,44,VALID,0.139453,
2008-10-13, 02:23:05,VALID,1003.16,VALID,0,VALID,93.6216,VALID,0,VALID,24.231,VALID,44,VALID,0.168359,
2008-10-13, 02:24:05,VALID,1003.14,VALID,0,VALID,93.6903,VALID,0,VALID,24.2097,VALID,44,VALID,0.438672,
2008-10-13, 02:25:05,VALID,1003.15,VALID,0,VALID,93.7437,VALID,0,VALID,24.1902,VALID,47,VALID,0.368359,
2008-10-13, 02:26:05,VALID,1003.12,VALID,0,VALID,93.8429,VALID,0,VALID,24.2097,VALID,47,VALID,0.30625,
2008-10-13, 02:27:05,VALID,1003.1,VALID,0,VALID,93.8734,VALID,0,VALID,24.1902,VALID,47,VALID,0.372656,
2008-10-13, 02:28:05,VALID,1003.12,VALID,0,VALID,93.8352,VALID,0,VALID,24.2097,VALID,47,VALID,0.237891,
2008-10-13, 02:29:05,VALID,1003.09,VALID,0,VALID,93.8657,VALID,0,VALID,24.1689,VALID,47,VALID,0.195703,
2008-10-13, 02:30:05,VALID,1003.06,VALID,0,VALID,93.9268,VALID,0.100563,VALID,24.1707,VALID,47,VALID,0.168359,
2008-10-13, 02:31:05,VALID,1003.03,VALID,0,VALID,93.8886,VALID,0.100563,VALID,24.1902,VALID,47,VALID,0.0972656,
2008-10-13, 02:32:05,VALID,1003.05,VALID,0,VALID,93.9115,VALID,0.100563,VALID,24.1707,VALID,47,VALID,0.258984,
2008-10-13, 02:33:05,VALID,1003.04,VALID,0,VALID,93.8505,VALID,0.100563,VALID,24.13,VALID,47,VALID,0,
2008-10-13, 02:34:05,VALID,1003.01,VALID,0,VALID,93.8963,VALID,0.100563,VALID,24.1318,VALID,47,VALID,0.217578,
2008-10-13, 02:35:05,VALID,1003.03,VALID,0,VALID,93.9573,VALID,0,VALID,24.1318,VALID,47,VALID,0.351563,
2008-10-13, 02:36:05,VALID,1003.03,VALID,0,VALID,94.0107,VALID,0.100563,VALID,24.1318,VALID,47,VALID,0.249609,
2008-10-13, 02:37:05,VALID,1003.01,VALID,0,VALID,94.0794,VALID,0,VALID,24.1123,VALID,47,VALID,0.320703,
2008-10-13, 02:38:05,VALID,1003.02,VALID,0,VALID,94.1328,VALID,0.100563,VALID,24.1726,VALID,47,VALID,0.325781,
2008-10-13, 02:39:05,VALID,1003.04,VALID,0,VALID,94.1099,VALID,0,VALID,24.1707,VALID,47,VALID,0.326172,
2008-10-13, 02:40:05,VALID,1003,VALID,0,VALID,94.0565,VALID,0,VALID,24.1105,VALID,47,VALID,0.519531,
2008-10-13, 02:41:05,VALID,1003.01,VALID,0,VALID,94.0031,VALID,0,VALID,24.1123,VALID,47,VALID,0.479688,
2008-10-13, 02:42:05,VALID,1003.04,VALID,0,VALID,94.0183,VALID,0,VALID,24.0929,VALID,47,VALID,0.521094,
2008-10-13, 02:43:05,VALID,1003.04,VALID,0,VALID,94.0641,VALID,0,VALID,24.0929,VALID,47,VALID,0.464453,
2008-10-13, 02:44:05,VALID,1003.08,VALID,0,VALID,94.0717,VALID,0,VALID,24.0521,VALID,47,VALID,0.494922,
2008-10-13, 02:45:05,VALID,1003.05,VALID,0,VALID,93.9878,VALID,0,VALID,24.0539,VALID,47,VALID,0.528125,
2008-10-13, 02:46:05,VALID,1003.05,VALID,0,VALID,93.9115,VALID,0,VALID,23.9955,VALID,47,VALID,0.525391,
2008-10-13, 02:47:05,VALID,1003.07,VALID,0,VALID,93.8886,VALID,0,VALID,23.9566,VALID,47,VALID,0.474609,
2008-10-13, 02:48:05,VALID,1003.06,VALID,0,VALID,93.9115,VALID,0,VALID,23.9584,VALID,47,VALID,0.435156,
2008-10-13, 02:49:05,VALID,1003.06,VALID,0,VALID,94.0488,VALID,0,VALID,23.9371,VALID,47,VALID,0.516406,
2008-10-13, 02:50:05,VALID,1003.07,VALID,0,VALID,94.1328,VALID,0,VALID,23.9371,VALID,44,VALID,0.425781,
2008-10-13, 02:51:05,VALID,1003.04,VALID,0,VALID,93.9878,VALID,0,VALID,23.8982,VALID,44,VALID,0.362109,
2008-10-13, 02:52:05,VALID,1003.05,VALID,0,VALID,93.9573,VALID,0,VALID,23.8593,VALID,44,VALID,0.437891,
2008-10-13, 02:53:05,VALID,1003.02,VALID,0,VALID,93.9497,VALID,0,VALID,23.8416,VALID,44,VALID,0.541016,
2008-10-13, 02:54:05,VALID,1002.98,VALID,0,VALID,93.9954,VALID,0.100563,VALID,23.7796,VALID,44,VALID,0.396875,
2008-10-13, 02:55:05,VALID,1002.99,VALID,0,VALID,94.0031,VALID,0.100563,VALID,23.7619,VALID,44,VALID,0.292969,
2008-10-13, 02:56:05,VALID,1002.96,VALID,0,VALID,94.0183,VALID,0.100563,VALID,23.7212,VALID,44,VALID,0.240234,
2008-10-13, 02:57:05,VALID,1002.96,VALID,0,VALID,94.0794,VALID,0.100563,VALID,23.7035,VALID,44,VALID,0.19375,
2008-10-13, 02:58:05,VALID,1002.95,VALID,0,VALID,94.0946,VALID,0.100563,VALID,23.6628,VALID,44,VALID,0.0660156,
2008-10-13, 02:59:05,VALID,1002.94,VALID,0,VALID,94.1328,VALID,0.100563,VALID,23.6646,VALID,44,VALID,0,
2008-10-13, 03:00:05,VALID,1002.92,VALID,0,VALID,94.2319,VALID,0.100563,VALID,23.6646,VALID,44,VALID,0.181641,
2008-10-13, 03:01:05,VALID,1002.92,VALID,0,VALID,94.3006,VALID,0.100563,VALID,23.6452,VALID,44,VALID,0.376953,
2008-10-13, 03:02:05,VALID,1002.89,VALID,0,VALID,94.3387,VALID,0.100563,VALID,23.6646,VALID,44,VALID,0.327344,
2008-10-13, 03:03:05,VALID,1002.9,VALID,0,VALID,94.3921,VALID,0.100563,VALID,23.6434,VALID,44,VALID,0.363281,
2008-10-13, 03:04:05,VALID,1002.9,VALID,0,VALID,94.4227,VALID,0.100563,VALID,23.6434,VALID,44,VALID,0.389453,
2008-10-13, 03:05:05,VALID,1002.89,VALID,0,VALID,94.4455,VALID,0.100563,VALID,23.6434,VALID,44,VALID,0.315625,
2008-10-13, 03:06:05,VALID,1002.88,VALID,0,VALID,94.4379,VALID,0.100563,VALID,23.6452,VALID,44,VALID,0.425391,
2008-10-13, 03:07:05,VALID,1002.85,VALID,0,VALID,94.4455,VALID,0.100563,VALID,23.6452,VALID,44,VALID,0.219531,
2008-10-13, 03:08:05,VALID,1002.78,VALID,0,VALID,94.5523,VALID,0.100563,VALID,23.6434,VALID,44,VALID,0.469531,
2008-10-13, 03:09:05,VALID,1002.75,VALID,0,VALID,94.6057,VALID,0.100563,VALID,23.6823,VALID,44,VALID,0.266016,
2008-10-13, 03:10:05,VALID,1002.75,VALID,0,VALID,94.6363,VALID,0.100563,VALID,23.7035,VALID,44,VALID,0.394141,
2008-10-13, 03:11:05,VALID,1002.74,VALID,0,VALID,94.5295,VALID,0.100563,VALID,23.6628,VALID,44,VALID,0.358203,
2008-10-13, 03:12:05,VALID,1002.7,VALID,0,VALID,94.5142,VALID,0.100563,VALID,23.6434,VALID,44,VALID,0.421484,
2008-10-13, 03:13:05,VALID,1002.73,VALID,0,VALID,94.6057,VALID,0.100563,VALID,23.6434,VALID,44,VALID,0.294141,
2008-10-13, 03:14:05,VALID,1002.73,VALID,0,VALID,94.7278,VALID,0.100563,VALID,23.7017,VALID,44,VALID,0.451562,
2008-10-13, 03:15:05,VALID,1002.71,VALID,0,VALID,94.8041,VALID,0.100563,VALID,23.7212,VALID,44,VALID,0.451953,
2008-10-13, 03:16:05,VALID,1002.71,VALID,0,VALID,94.8346,VALID,0.100563,VALID,23.7796,VALID,44,VALID,0.396484,
2008-10-13, 03:17:05,VALID,1002.7,VALID,0,VALID,94.8575,VALID,0.100563,VALID,23.8203,VALID,44,VALID,0.275,
2008-10-13, 03:18:05,VALID,1002.68,VALID,0,VALID,94.8804,VALID,0.100563,VALID,23.838,VALID,44,VALID,0.149219,
2008-10-13, 03:19:05,VALID,1002.67,VALID,0,VALID,94.7583,VALID,0.100563,VALID,23.8185,VALID,44,VALID,0.05625,
2008-10-13, 03:20:05,VALID,1002.68,VALID,0,VALID,94.5905,VALID,0,VALID,23.7796,VALID,44,VALID,0.00546875,
2008-10-13, 03:21:05,VALID,1002.63,VALID,0,VALID,94.5447,VALID,0.100563,VALID,23.7619,VALID,44,VALID,0.335156,
2008-10-13, 03:22:05,VALID,1002.62,VALID,0,VALID,94.5142,VALID,0.100563,VALID,23.7212,VALID,44,VALID,0.448828,
2008-10-13, 03:23:05,VALID,1002.64,VALID,0,VALID,94.4989,VALID,0.100563,VALID,23.7017,VALID,44,VALID,0.368359,
2008-10-13, 03:24:05,VALID,1002.63,VALID,0,VALID,94.4608,VALID,0,VALID,23.6452,VALID,44,VALID,0.310937,
2008-10-13, 03:25:05,VALID,1002.59,VALID,0,VALID,94.4913,VALID,0,VALID,23.6062,VALID,44,VALID,0.246484,
2008-10-13, 03:26:05,VALID,1002.59,VALID,0,VALID,94.5676,VALID,0,VALID,23.6062,VALID,44,VALID,0.150391,
2008-10-13, 03:27:05,VALID,1002.59,VALID,0,VALID,94.6515,VALID,0,VALID,23.6469,VALID,44,VALID,0.0078125,
2008-10-13, 03:28:05,VALID,1002.62,VALID,0,VALID,94.7736,VALID,0,VALID,23.6452,VALID,44,VALID,0.358203,
2008-10-13, 03:29:05,VALID,1002.64,VALID,0,VALID,94.7278,VALID,0,VALID,23.6469,VALID,44,VALID,0.450781,
2008-10-13, 03:30:05,VALID,1002.63,VALID,0,VALID,94.7812,VALID,0,VALID,23.6664,VALID,43,VALID,0.429297,
2008-10-13, 03:31:05,VALID,1002.67,VALID,0,VALID,94.7278,VALID,0,VALID,23.6257,VALID,42,VALID,0.294531,
2008-10-13, 03:32:05,VALID,1002.67,VALID,0,VALID,94.6744,VALID,0,VALID,23.5868,VALID,42,VALID,0.127344,
2008-10-13, 03:33:05,VALID,1002.66,VALID,0,VALID,94.7354,VALID,0,VALID,23.608,VALID,42,VALID,0.130859,
2008-10-13, 03:34:05,VALID,1002.67,VALID,0,VALID,94.9262,VALID,0,VALID,23.6275,VALID,42,VALID,0.201562,
2008-10-13, 03:35:05,VALID,1002.69,VALID,0,VALID,94.9872,VALID,0,VALID,23.6859,VALID,42,VALID,0,
2008-10-13, 03:36:05,VALID,1002.72,VALID,0,VALID,94.9262,VALID,0,VALID,23.7053,VALID,42,VALID,0,
2008-10-13, 03:37:05,VALID,1002.72,VALID,0,VALID,94.7965,VALID,0,VALID,23.6859,VALID,42,VALID,0.0402344,
2008-10-13, 03:38:05,VALID,1002.74,VALID,0,VALID,94.7354,VALID,0,VALID,23.6257,VALID,42,VALID,0.325781,
2008-10-13, 03:39:05,VALID,1002.72,VALID,0,VALID,94.7202,VALID,0.100563,VALID,23.6044,VALID,42,VALID,0.489062,
2008-10-13, 03:40:05,VALID,1002.72,VALID,0,VALID,94.6439,VALID,0.100563,VALID,23.5655,VALID,42,VALID,0.529688,
2008-10-13, 03:41:05,VALID,1002.71,VALID,0,VALID,94.6286,VALID,0.100563,VALID,23.5266,VALID,42,VALID,0.523828,
2008-10-13, 03:42:05,VALID,1002.72,VALID,0,VALID,94.6668,VALID,0.100563,VALID,23.5284,VALID,25,VALID,0.417969,
2008-10-13, 03:43:05,VALID,1002.71,VALID,0,VALID,94.8194,VALID,0.100563,VALID,23.5284,VALID,24,VALID,0.379687,